Change the Weather History Date:

Saturday, May 18, 2013

  Actual Average (YMML) Record (YMML)
Temperature  
Mean Temperature 52 °F -  
Max Temperature 57 °F 60 °F 68 °F (2014)
Min Temperature 46 °F 46 °F 37 °F (2000)
Degree Days  
Heating Degree Days 14    
Growing Degree Days 2 (Base 50)    
Moisture  
Dew Point 47 °F    
Average Humidity 84    
Maximum Humidity 94    
Minimum Humidity 57    
Precipitation  
Precipitation 0.01 in - - ()
Sea Level Pressure  
Sea Level Pressure 30.04 in    
Wind  
Wind Speed 10 mph ()    
Max Wind Speed 18 mph    
Max Gust Speed -    
Visibility 6.2 miles    
Events Rain    
Averages and records for this station are not official NWS values.
T = Trace of Precipitation, MM = Missing Value Source: Averaged Metar Reports

Daily Weather History Graph

Daily Weather History Graph

Search for Another Location

Airport or City:

Trip Planner

Search our weather history database for the weather conditions in past years. The results will help you decide how hot, cold, wet, or windy it might be!

Date:

Astronomy

May. 18, 2013 Rise Set
Actual Time 7:18 AM AEST 5:18 PM AEST
Civil Twilight 6:49 AM AEST 5:46 PM AEST
Nautical Twilight 6:17 AM AEST 6:18 PM AEST
Astronomical Twilight 5:46 AM AEST 6:50 PM AEST
Moon 12:51 PM AEST (5/18) No Moon Set
Length of Visible Light 10h 56m
Length of Day
10h 00m
Waxing Crescent, 49% of the Moon is Illuminated
May 18
Waxing Crescent
May 18
First Quarter
May 25
Full
Jun 1
Last Quarter
Jun 9
New

Hourly Weather History & Observations

Time (AEST) Temp. Windchill Dew Point Humidity Pressure Visibility Wind Dir Wind Speed Gust Speed Precip Events Conditions
12:00 AM 50 °F - 47 °F 87% 30.04 in - WNW 11.5 mph - -   Overcast
12:00 AM 50.0 °F - 48.2 °F 94% 30.04 in 6.2 mi WNW 11.5 mph - N/A   Overcast
12:30 AM 50.0 °F - 48.2 °F 94% 30.04 in 6.2 mi WNW 11.5 mph - N/A   Overcast
1:00 AM 50.0 °F - 46.4 °F 87% 30.04 in 6.2 mi WNW 10.4 mph - N/A   Overcast
1:30 AM 50.0 °F - 46.4 °F 87% 30.04 in 6.2 mi WNW 9.2 mph - N/A   Overcast
2:00 AM 50.0 °F - 48.2 °F 94% 30.04 in 6.2 mi WNW 10.4 mph - N/A   Overcast
2:30 AM 50.0 °F - 48.2 °F 94% 30.01 in 6.2 mi WNW 8.1 mph - N/A   Overcast
3:00 AM 50 °F - 47 °F 87% 30.03 in - West 10.4 mph - -   Overcast
3:00 AM 50.0 °F - 48.2 °F 94% 30.01 in 6.2 mi West 10.4 mph - N/A   Overcast
3:30 AM 50.0 °F - 46.4 °F 87% 30.01 in 6.2 mi West 11.5 mph - N/A   Overcast
4:00 AM 50.0 °F - 46.4 °F 87% 30.01 in 6.2 mi WNW 12.7 mph - N/A   Overcast
4:30 AM 50.0 °F - 46.4 °F 87% 30.01 in 6.2 mi WNW 11.5 mph - N/A   Overcast
5:00 AM 50.0 °F - 46.4 °F 87% 30.01 in 6.2 mi WNW 10.4 mph - N/A   Overcast
5:30 AM 50.0 °F - 46.4 °F 87% 30.01 in 6.2 mi WNW 10.4 mph - N/A   Overcast
6:00 AM 50 °F - 47 °F 86% 30.04 in - West 9.2 mph - -   Overcast
6:00 AM 50.0 °F - 46.4 °F 87% 30.04 in 6.2 mi West 9.2 mph - N/A   Overcast
6:30 AM 50.0 °F - 46.4 °F 87% 30.04 in 6.2 mi WNW 11.5 mph - N/A   Overcast
7:00 AM 50.0 °F - 46.4 °F 87% 30.04 in 6.2 mi West 10.4 mph - N/A   Overcast
7:30 AM 50.0 °F - 46.4 °F 87% 30.04 in 6.2 mi West 6.9 mph - N/A   Overcast
8:00 AM 50.0 °F - 46.4 °F 87% 30.04 in 6.2 mi West 8.1 mph - N/A   Overcast
8:30 AM 50.0 °F - 46.4 °F 87% 30.04 in 6.2 mi West 9.2 mph - N/A   Overcast
9:00 AM 52 °F - 47 °F 76% 30.06 in - West 10.4 mph - -   Overcast
9:00 AM 51.8 °F - 46.4 °F 82% 30.04 in 6.2 mi West 10.4 mph - N/A   Overcast
9:30 AM 51.8 °F - 46.4 °F 82% 30.06 in 6.2 mi West 13.8 mph - N/A   Overcast
10:00 AM 53.6 °F - 46.4 °F 77% 30.06 in 6.2 mi West 11.5 mph - N/A   Overcast
10:30 AM 55.4 °F - 46.4 °F 72% 30.06 in 6.2 mi West 12.7 mph - N/A   Mostly Cloudy
11:00 AM 53.6 °F - 46.4 °F 77% 30.06 in 6.2 mi SW 17.3 mph - N/A   Overcast
11:30 AM 55.4 °F - 44.6 °F 67% 30.04 in 6.2 mi WSW 10.4 mph - N/A   Mostly Cloudy
12:00 PM 56 °F - 45 °F 57% 30.05 in - SW 10.4 mph - -   Overcast
12:00 PM 57.2 °F - 44.6 °F 63% 30.04 in 6.2 mi SW 10.4 mph - N/A   Mostly Cloudy
12:30 PM 51.8 °F - 48.2 °F 88% 30.04 in 6.2 mi West 10.4 mph - N/A Rain Light Rain Showers
1:00 PM 53.6 °F - 46.4 °F 77% 30.04 in 6.2 mi West 12.7 mph - N/A   Overcast
1:30 PM 55.4 °F - 48.2 °F 77% 30.01 in 6.2 mi West 9.2 mph - N/A   Mostly Cloudy
2:00 PM 57.2 °F - 44.6 °F 63% 30.01 in 6.2 mi WSW 9.2 mph - N/A   Mostly Cloudy
2:30 PM 53.6 °F - 46.4 °F 77% 30.01 in 6.2 mi SSW 18.4 mph - N/A   Drizzle
3:00 PM 53 °F - 48 °F 77% 30.03 in - SW 5.8 mph - -   Overcast
3:00 PM 53.6 °F - 48.2 °F 82% 30.01 in 6.2 mi SW 5.8 mph - N/A   Overcast
3:30 PM 53.6 °F - 48.2 °F 82% 30.04 in 6.2 mi West 6.9 mph - N/A   Overcast
4:00 PM 53.6 °F - 48.2 °F 82% 30.04 in 6.2 mi West 9.2 mph - N/A Rain Light Rain Showers
4:30 PM 53.6 °F - 48.2 °F 82% 30.04 in 6.2 mi WNW 8.1 mph - N/A   Overcast
5:00 PM 51.8 °F - 48.2 °F 88% 30.04 in 6.2 mi WNW 6.9 mph - N/A   Overcast
5:30 PM 50.0 °F - 46.4 °F 87% 30.04 in 6.2 mi NW 5.8 mph - N/A   Scattered Clouds
6:00 PM 49 °F - 47 °F 90% 30.04 in - NW 8.1 mph - -  
6:00 PM 50.0 °F - 46.4 °F 87% 30.04 in 6.2 mi NW 8.1 mph - N/A   Unknown
6:30 PM 48.2 °F - 46.4 °F 93% 30.04 in 6.2 mi NW 8.1 mph - N/A   Unknown
7:00 PM 48.2 °F - 46.4 °F 93% 30.04 in 6.2 mi NW 8.1 mph - N/A   Scattered Clouds
7:30 PM 48.2 °F - 46.4 °F 93% 30.04 in 6.2 mi NW 9.2 mph - N/A   Unknown
8:00 PM 48.2 °F - 44.6 °F 87% 30.04 in 6.2 mi WNW 9.2 mph - N/A   Unknown
8:30 PM 46.4 °F 41.9 °F 44.6 °F 93% 30.04 in 6.2 mi WNW 9.2 mph - N/A   Unknown
9:00 PM 48 °F - 45 °F 85% 30.06 in - WNW 10.4 mph - -  
9:00 PM 48.2 °F - 44.6 °F 87% 30.06 in 6.2 mi WNW 10.4 mph - N/A   Scattered Clouds
9:30 PM 48.2 °F - 46.4 °F 93% 30.06 in 6.2 mi WNW 9.2 mph - N/A   Overcast
10:00 PM 50.0 °F - 46.4 °F 87% 30.06 in 6.2 mi WNW 10.4 mph - N/A   Overcast
10:30 PM 50.0 °F - 46.4 °F 87% 30.06 in 6.2 mi WNW 9.2 mph - N/A   Overcast
11:00 PM 50.0 °F - 46.4 °F 87% 30.06 in 6.2 mi West 8.1 mph - N/A Rain Light Rain Showers
11:30 PM 50.0 °F - 46.4 °F 87% 30.04 in 6.2 mi WNW 10.4 mph - N/A   Overcast